When you browse on this site, cookies collect data to enhance your experience and personalize the content and advertising you see.
Visit our Privacy Policy to learn more. By continuing to use the site, you agree to this use of cookies and data.
  • In Hungary
  • List of Countries
  • For 7 days
  • Water Temperature
  • Weather Map
  • News
  • Weather Widgets
  • user-avatar
    Login

    Hourly Weather Warwick

    Today, 26 May, Tuesday

    Time Temperature Precipitation Wind Pressure Humidity
    00:00 +12°C° 0 mm 2 mps 770 mmHg 88%
    01:00 +12°C° 0 mm 2 mps 771 mmHg 86%
    02:00 +12°C° 0 mm 1 mps 771 mmHg 84%
    03:00 +12°C° 0 mm 1 mps 771 mmHg 82%
    04:00 +12°C° 0 mm 1 mps 771 mmHg 80%
    05:00 +13°C° 0 mm 2 mps 771 mmHg 78%
    06:00 +13°C° 0 mm 2 mps 771 mmHg 76%
    07:00 +15°C° 0 mm 2 mps 771 mmHg 72%
    08:00 +16°C° 0 mm 2 mps 771 mmHg 67%
    09:00 +17°C° 0 mm 2 mps 772 mmHg 63%
    10:00 +18°C° 0 mm 2 mps 772 mmHg 63%
    11:00 +19°C° 0 mm 2 mps 771 mmHg 63%
    12:00 +20°C° 0 mm 2 mps 771 mmHg 63%
    13:00 +20°C° 0 mm 2 mps 771 mmHg 64%
    14:00 +22°C° 0 mm 1 mps 771 mmHg 66%
    15:00 +22°C° 0 mm 1 mps 771 mmHg 67%
    16:00 +21°C° 0 mm 1 mps 771 mmHg 71%
    17:00 +20°C° 0 mm 2 mps 771 mmHg 75%
    18:00 +20°C° 0 mm 2 mps 771 mmHg 79%
    19:00 +18°C° 0 mm 2 mps 771 mmHg 82%
    20:00 +17°C° 0 mm 2 mps 771 mmHg 84%
    21:00 +15°C° 0 mm 2 mps 772 mmHg 87%
    22:00 +15°C° 0 mm 2 mps 772 mmHg 86%
    23:00 +14°C° 0 mm 2 mps 772 mmHg 84%

    Tomorrow, 27 May, Wednesday

    Time Temperature Precipitation Wind Pressure Humidity
    00:00 +13°C° 0 mm 2 mps 772 mmHg 83%
    01:00 +13°C° 0 mm 2 mps 772 mmHg 79%
    02:00 +13°C° 0 mm 2 mps 772 mmHg 75%
    03:00 +13°C° 0 mm 2 mps 772 mmHg 71%
    04:00 +13°C° 0 mm 2 mps 772 mmHg 72%
    05:00 +13°C° 0 mm 2 mps 772 mmHg 72%
    06:00 +13°C° 0 mm 2 mps 772 mmHg 73%
    07:00 +14°C° 0 mm 2 mps 772 mmHg 69%
    08:00 +16°C° 0 mm 2 mps 772 mmHg 64%
    09:00 +17°C° 0 mm 2 mps 772 mmHg 60%
    10:00 +18°C° 0 mm 2 mps 772 mmHg 58%
    11:00 +19°C° 0 mm 2 mps 772 mmHg 55%
    12:00 +20°C° 0 mm 2 mps 772 mmHg 53%
    13:00 +21°C° 0 mm 2 mps 772 mmHg 54%
    14:00 +21°C° 0 mm 2 mps 771 mmHg 55%
    15:00 +21°C° 0 mm 2 mps 771 mmHg 55%
    16:00 +21°C° 0 mm 2 mps 771 mmHg 61%
    17:00 +20°C° 0 mm 2 mps 771 mmHg 67%
    18:00 +20°C° 0 mm 2 mps 771 mmHg 73%
    19:00 +18°C° 0 mm 2 mps 771 mmHg 79%
    20:00 +16°C° 0 mm 3 mps 771 mmHg 85%
    21:00 +13°C° 0 mm 3 mps 772 mmHg 91%
    22:00 +13°C° 0 mm 3 mps 772 mmHg 92%
    23:00 +13°C° 0 mm 2 mps 772 mmHg 93%

    Day after tomorrow, 28 May, Thursday

    Time Temperature Precipitation Wind Pressure Humidity
    00:00 +12°C° 0 mm 2 mps 772 mmHg 93%
    01:00 +12°C° 0 mm 2 mps 772 mmHg 93%
    02:00 +10°C° 0 mm 2 mps 771 mmHg 93%
    03:00 +10°C° 0 mm 2 mps 771 mmHg 93%
    04:00 +10°C° 0 mm 2 mps 771 mmHg 90%
    05:00 +10°C° 0 mm 2 mps 771 mmHg 88%
    06:00 +12°C° 0 mm 2 mps 771 mmHg 85%
    07:00 +13°C° 0 mm 2 mps 771 mmHg 78%
    08:00 +14°C° 0 mm 3 mps 771 mmHg 70%
    09:00 +16°C° 0 mm 3 mps 771 mmHg 63%
    10:00 +17°C° 0 mm 3 mps 771 mmHg 61%
    11:00 +18°C° 0 mm 3 mps 770 mmHg 59%
    12:00 +19°C° 0 mm 3 mps 770 mmHg 57%
    13:00 +19°C° 0 mm 3 mps 770 mmHg 59%
    14:00 +20°C° 0 mm 3 mps 769 mmHg 60%
    15:00 +20°C° 0 mm 4 mps 769 mmHg 61%
    16:00 +19°C° 0 mm 3 mps 769 mmHg 65%
    17:00 +19°C° 0 mm 3 mps 769 mmHg 69%
    18:00 +18°C° 0 mm 3 mps 768 mmHg 73%
    19:00 +16°C° 0 mm 3 mps 768 mmHg 76%
    20:00 +13°C° 0 mm 3 mps 768 mmHg 80%
    21:00 +12°C° 0 mm 3 mps 768 mmHg 84%
    22:00 +10°C° 0 mm 3 mps 768 mmHg 83%
    23:00 +9°C° 0 mm 3 mps 768 mmHg 82%

    29 May, Friday

    Time Temperature Precipitation Wind Pressure Humidity
    00:00 +8°C° 0 mm 3 mps 768 mmHg 81%
    01:00 +8°C° 0 mm 3 mps 768 mmHg 82%
    02:00 +7°C° 0 mm 3 mps 768 mmHg 82%
    03:00 +5°C° 0 mm 3 mps 768 mmHg 83%
    04:00 +7°C° 0 mm 3 mps 767 mmHg 82%
    05:00 +8°C° 0 mm 3 mps 767 mmHg 81%
    06:00 +9°C° 0 mm 3 mps 767 mmHg 80%
    07:00 +11°C° 0 mm 3 mps 767 mmHg 76%
    08:00 +13°C° 0 mm 3 mps 767 mmHg 73%
    09:00 +15°C° 0 mm 4 mps 766 mmHg 69%
    10:00 +17°C° 0 mm 4 mps 766 mmHg 66%
    11:00 +18°C° 0 mm 4 mps 766 mmHg 63%
    12:00 +19°C° 0 mm 4 mps 765 mmHg 60%
    13:00 +20°C° 0 mm 4 mps 765 mmHg 60%
    14:00 +20°C° 0 mm 4 mps 765 mmHg 60%
    15:00 +20°C° 0 mm 4 mps 764 mmHg 60%
    16:00 +20°C° 0 mm 4 mps 764 mmHg 63%
    17:00 +19°C° 0 mm 4 mps 764 mmHg 66%
    18:00 +18°C° 0 mm 3 mps 764 mmHg 69%
    19:00 +16°C° 0 mm 3 mps 764 mmHg 69%
    20:00 +13°C° 0 mm 3 mps 764 mmHg 69%
    21:00 +11°C° 0 mm 3 mps 764 mmHg 69%
    22:00 +10°C° 0 mm 3 mps 764 mmHg 70%
    23:00 +10°C° 0 mm 3 mps 764 mmHg 70%

    30 May, Saturday

    Time Temperature Precipitation Wind Pressure Humidity
    00:00 +9°C° 0 mm 3 mps 764 mmHg 70%
    01:00 +8°C° 0 mm 3 mps 764 mmHg 76%
    02:00 +8°C° 0 mm 2 mps 764 mmHg 82%
    03:00 +8°C° 0 mm 2 mps 764 mmHg 88%
    04:00 +9°C° 0 mm 2 mps 764 mmHg 88%
    05:00 +10°C° 0 mm 2 mps 764 mmHg 87%
    06:00 +12°C° 0 mm 2 mps 764 mmHg 87%
    07:00 +13°C° 0 mm 3 mps 764 mmHg 84%
    08:00 +16°C° 0 mm 3 mps 764 mmHg 80%
    09:00 +18°C° 0 mm 3 mps 764 mmHg 77%
    10:00 +19°C° 0 mm 3 mps 764 mmHg 75%
    11:00 +20°C° 0 mm 3 mps 763 mmHg 72%
    12:00 +21°C° 0 mm 4 mps 763 mmHg 70%
    13:00 +21°C° 0 mm 4 mps 763 mmHg 69%
    14:00 +22°C° 0 mm 4 mps 763 mmHg 69%
    15:00 +22°C° 0 mm 3 mps 763 mmHg 69%
    16:00 +21°C° 0 mm 3 mps 762 mmHg 72%
    17:00 +21°C° 0 mm 3 mps 762 mmHg 75%
    18:00 +20°C° 0 mm 3 mps 762 mmHg 78%
    19:00 +19°C° 0 mm 3 mps 762 mmHg 82%
    20:00 +17°C° 0 mm 3 mps 762 mmHg 86%
    21:00 +14°C° 0 mm 3 mps 763 mmHg 90%
    22:00 +13°C° 0 mm 3 mps 763 mmHg 91%
    23:00 +12°C° 0 mm 3 mps 762 mmHg 92%

    31 May, Sunday

    Time Temperature Precipitation Wind Pressure Humidity
    00:00 +11°C° 0 mm 3 mps 762 mmHg 93%
    01:00 +10°C° 0 mm 2 mps 762 mmHg 93%
    02:00 +9°C° 0 mm 2 mps 762 mmHg 94%
    03:00 +9°C° 0 mm 2 mps 762 mmHg 94%
    04:00 +9°C° 0 mm 2 mps 762 mmHg 92%
    05:00 +10°C° 0 mm 2 mps 762 mmHg 90%
    06:00 +10°C° 0 mm 2 mps 762 mmHg 89%
    07:00 +13°C° 0 mm 2 mps 762 mmHg 84%
    08:00 +15°C° 0 mm 2 mps 762 mmHg 80%
    09:00 +17°C° 0 mm 3 mps 762 mmHg 76%
    10:00 +18°C° 0 mm 3 mps 762 mmHg 74%
    11:00 +19°C° 0 mm 3 mps 761 mmHg 72%
    12:00 +21°C° 0 mm 3 mps 761 mmHg 70%
    13:00 +21°C° 0.1 mm 3 mps 761 mmHg 70%
    14:00 +21°C° 0.1 mm 3 mps 761 mmHg 70%
    15:00 +21°C° 0.1 mm 3 mps 761 mmHg 70%
    16:00 +21°C° 0.1 mm 3 mps 760 mmHg 74%
    17:00 +20°C° 0.1 mm 3 mps 760 mmHg 78%
    18:00 +20°C° 0.1 mm 3 mps 760 mmHg 81%
    19:00 +19°C° 0 mm 3 mps 760 mmHg 83%
    20:00 +17°C° 0 mm 3 mps 760 mmHg 84%
    21:00 +15°C° 0 mm 4 mps 760 mmHg 85%
    22:00 +14°C° 0 mm 3 mps 760 mmHg 86%
    23:00 +13°C° 0 mm 3 mps 760 mmHg 86%
    Show more